Zurück zum Katalog

THOR ABLESTAR DEB

AktivLEO
NORAD 6747·DEBRIS·🇺🇸 United States

Gestartet Jun 29, 1961 von Cape Canaveral Space Force Station

Loading…

Nächste Überflüge (nächste 24 Stunden)

TLE

AktuellSource: Space-Track

Epoche: Sep 14, 2026, 11:30 UTC

1 06747U 61015KM  26257.47985016  .00000144  00000-0  15230-3 0  9992
2 06747  66.5988 284.7377 0136322 151.4664 209.3966 13.95262314304031

Verfolge THOR ABLESTAR DEB in Echtzeit mit AllMySat

Download on the App Store